Radiation Dose at Monitoring Post of Fukushima Daini Nuclear Power Station
Date,Time,MP-1(microSv/h),MP-2(microSv/h),MP-3(microSv/h),MP-4(microSv/h),MP-5(microSv/h),MP-6(microSv/h),MP-7(microSv/h),Wind Direction,Wind Velocity(m/s),Rain
2018/02/22,00:00,0.339,0.210,0.347,0.327,0.308,0.172,0.103,north,2.5,No
2018/02/22,00:10,0.339,0.209,0.346,0.328,0.308,0.172,0.103,northwest,1.0,No
2018/02/22,00:20,0.339,0.209,0.346,0.326,0.308,0.172,0.102,northwest,0.8,No
2018/02/22,00:30,0.339,0.210,0.346,0.327,0.309,0.172,0.103,north-northwest,0.8,No
2018/02/22,00:40,0.337,0.211,0.347,0.329,0.309,0.172,0.104,north,2.0,No
2018/02/22,00:50,0.339,0.211,0.347,0.327,0.308,0.174,0.103,-,CALM,No
2018/02/22,01:00,0.339,0.210,0.347,0.328,0.308,0.173,0.103,north-northwest,1.2,No
2018/02/22,01:10,0.339,0.211,0.347,0.329,0.308,0.172,0.102,north-northwest,1.2,No
2018/02/22,01:20,0.339,0.210,0.347,0.328,0.308,0.173,0.103,north-northwest,0.6,No
2018/02/22,01:30,0.337,0.211,0.345,0.326,0.307,0.172,0.103,north-northwest,0.7,No
2018/02/22,01:40,0.339,0.211,0.346,0.327,0.309,0.172,0.102,-,CALM,No
2018/02/22,01:50,0.340,0.210,0.346,0.328,0.310,0.172,0.104,north-northwest,0.8,No
2018/02/22,02:00,0.339,0.210,0.347,0.328,0.307,0.172,0.103,north,2.8,No
2018/02/22,02:10,0.339,0.211,0.348,0.328,0.308,0.173,0.103,north,1.5,No
2018/02/22,02:20,0.339,0.211,0.348,0.328,0.307,0.173,0.103,north-northwest,1.1,No
2018/02/22,02:30,0.340,0.212,0.348,0.328,0.308,0.173,0.103,north-northwest,4.7,No
2018/02/22,02:40,0.338,0.211,0.347,0.328,0.308,0.173,0.104,north,6.2,No
2018/02/22,02:50,0.339,0.210,0.346,0.329,0.308,0.174,0.103,north,2.2,No
2018/02/22,03:00,0.338,0.211,0.345,0.328,0.307,0.173,0.103,north,2.6,No
2018/02/22,03:10,0.339,0.211,0.347,0.328,0.308,0.174,0.102,north,1.8,No
2018/02/22,03:20,0.339,0.210,0.348,0.327,0.308,0.173,0.102,north-northwest,1.5,No
2018/02/22,03:30,0.339,0.210,0.347,0.328,0.308,0.172,0.103,north,5.5,No
2018/02/22,03:40,0.340,0.210,0.347,0.329,0.309,0.172,0.103,north,6.8,No
2018/02/22,03:50,0.340,0.211,0.348,0.329,0.309,0.173,0.103,north,6.8,No
2018/02/22,04:00,0.340,0.211,0.347,0.327,0.308,0.173,0.103,north,4.3,No
2018/02/22,04:10,0.339,0.209,0.347,0.328,0.307,0.173,0.102,north,6.9,No
2018/02/22,04:20,0.340,0.211,0.348,0.328,0.307,0.173,0.103,north,6.8,No
2018/02/22,04:30,0.339,0.211,0.348,0.328,0.308,0.172,0.103,north-northwest,5.5,No
2018/02/22,04:40,0.339,0.211,0.347,0.328,0.307,0.172,0.103,north,6.1,No
2018/02/22,04:50,0.339,0.210,0.347,0.329,0.308,0.172,0.103,north,6.0,No
2018/02/22,05:00,0.339,0.211,0.346,0.327,0.308,0.171,0.103,north,4.7,No
2018/02/22,05:10,0.339,0.211,0.346,0.327,0.306,0.172,0.102,north,3.9,No
2018/02/22,05:20,0.339,0.211,0.348,0.329,0.308,0.172,0.103,north,2.7,No
2018/02/22,05:30,0.339,0.210,0.347,0.326,0.309,0.173,0.103,north,5.8,No
2018/02/22,05:40,0.339,0.210,0.346,0.327,0.307,0.172,0.103,north,3.8,No
2018/02/22,05:50,0.339,0.208,0.347,0.327,0.307,0.172,0.103,north-northwest,4.5,No
2018/02/22,06:00,0.338,0.211,0.346,0.327,0.306,0.172,0.103,north-northwest,3.2,No
2018/02/22,06:10,0.340,0.211,0.347,0.329,0.307,0.173,0.103,north-northwest,3.9,No
2018/02/22,06:20,0.339,0.210,0.347,0.328,0.307,0.172,0.102,north-northwest,1.4,No
2018/02/22,06:30,0.339,0.210,0.346,0.329,0.307,0.172,0.103,north-northwest,3.9,No
2018/02/22,06:40,0.339,0.210,0.345,0.327,0.306,0.171,0.103,north-northwest,3.4,No
2018/02/22,06:50,0.338,0.210,0.346,0.327,0.307,0.172,0.102,north-northwest,3.5,No
2018/02/22,07:00,0.338,0.210,0.346,0.328,0.307,0.172,0.103,north,2.7,No
2018/02/22,07:10,0.339,0.210,0.348,0.327,0.308,0.172,0.102,north,1.6,No
2018/02/22,07:20,0.340,0.210,0.347,0.328,0.307,0.171,0.103,north-northwest,1.4,No
2018/02/22,07:30,0.338,0.209,0.346,0.327,0.306,0.170,0.103,west,2.0,No
2018/02/22,07:40,0.340,0.210,0.346,0.327,0.307,0.171,0.102,west-northwest,1.9,No
2018/02/22,07:50,0.339,0.209,0.345,0.326,0.307,0.171,0.102,northwest,2.7,No
2018/02/22,08:00,0.340,0.209,0.346,0.327,0.309,0.171,0.102,northwest,2.0,No
2018/02/22,08:10,0.339,0.209,0.345,0.327,0.308,0.171,0.102,north,1.6,No
2018/02/22,08:20,0.340,0.209,0.346,0.325,0.307,0.172,0.102,north,2.8,No
2018/02/22,08:30,0.338,0.210,0.346,0.325,0.308,0.172,0.103,north,3.5,No
2018/02/22,08:40,0.339,0.210,0.347,0.327,0.307,0.172,0.103,north-northwest,3.5,No
2018/02/22,08:50,0.338,0.210,0.345,0.327,0.308,0.171,0.103,north-northwest,3.0,No
2018/02/22,09:00,0.341,0.209,0.346,0.327,0.308,0.172,0.102,north-northwest,2.0,No
2018/02/22,09:10,0.339,0.210,0.346,0.327,0.307,0.170,0.102,north-northwest,1.4,No
2018/02/22,09:20,0.338,0.210,0.345,0.326,0.307,0.172,0.102,north,2.3,No
2018/02/22,09:30,0.339,0.209,0.345,0.327,0.308,0.171,0.102,north-northwest,2.8,No
2018/02/22,09:40,0.339,0.210,0.345,0.327,0.307,0.172,0.102,north-northwest,2.3,No
2018/02/22,09:50,0.339,0.209,0.345,0.327,0.308,0.172,0.102,northeast,2.2,No
2018/02/22,10:00,0.338,0.209,0.344,0.326,0.307,0.171,0.102,north-northeast,2.8,No
2018/02/22,10:10,0.337,0.209,0.344,0.328,0.308,0.171,0.102,northeast,3.4,No
2018/02/22,10:20,0.338,0.210,0.345,0.326,0.306,0.172,0.102,northeast,4.3,No
2018/02/22,10:30,0.339,0.209,0.347,0.327,0.308,0.172,0.103,northeast,3.2,No
2018/02/22,10:40,0.338,0.210,0.344,0.328,0.307,0.171,0.101,northeast,2.3,No
2018/02/22,10:50,0.338,0.209,0.345,0.327,0.307,0.171,0.103,northeast,2.3,No
2018/02/22,11:00,0.339,0.209,0.345,0.326,0.307,0.171,0.102,northeast,3.0,No
2018/02/22,11:10,0.337,0.209,0.346,0.326,0.307,0.172,0.102,east-northeast,1.9,No
2018/02/22,11:20,0.337,0.210,0.345,0.327,0.307,0.172,0.103,east-northeast,1.1,No
2018/02/22,11:30,0.337,0.209,0.344,0.327,0.307,0.172,0.103,northeast,2.6,No
2018/02/22,11:40,0.339,0.209,0.346,0.327,0.309,0.171,0.102,east,2.8,No
2018/02/22,11:50,0.337,0.210,0.347,0.327,0.309,0.171,0.102,east-northeast,3.1,No
2018/02/22,12:00,0.337,0.210,0.345,0.326,0.308,0.171,0.103,east,1.1,No
2018/02/22,12:10,0.336,0.210,0.345,0.326,0.308,0.172,0.102,east,1.7,No
2018/02/22,12:20,0.338,0.209,0.344,0.327,0.306,0.171,0.102,east-northeast,2.2,No
2018/02/22,12:30,0.339,0.209,0.345,0.327,0.306,0.172,0.103,northeast,3.0,Yes
2018/02/22,12:40,0.338,0.209,0.344,0.326,0.307,0.172,0.102,east,2.6,Yes
2018/02/22,12:50,0.338,0.209,0.345,0.326,0.308,0.172,0.102,east,3.2,Yes
2018/02/22,13:00,0.337,0.210,0.344,0.326,0.307,0.173,0.102,east-southeast,1.4,Yes
2018/02/22,13:10,0.338,0.210,0.345,0.327,0.306,0.171,0.102,east,2.3,Yes
2018/02/22,13:20,0.337,0.209,0.345,0.327,0.309,0.172,0.102,east,2.0,No
2018/02/22,13:30,0.338,0.209,0.344,0.327,0.307,0.171,0.102,east-southeast,2.5,Yes
2018/02/22,13:40,0.338,0.210,0.344,0.328,0.307,0.172,0.103,east,2.4,Yes
2018/02/22,13:50,0.338,0.209,0.345,0.329,0.307,0.171,0.102,east,1.6,No
2018/02/22,14:00,0.339,0.210,0.343,0.326,0.307,0.172,0.103,east,1.9,No
2018/02/22,14:10,0.339,0.210,0.344,0.327,0.308,0.172,0.102,east-southeast,1.7,No
2018/02/22,14:20,0.338,0.209,0.345,0.327,0.307,0.172,0.103,southeast,1.6,No
2018/02/22,14:30,0.339,0.210,0.345,0.326,0.308,0.171,0.101,east-southeast,2.1,No
2018/02/22,14:40,0.339,0.209,0.344,0.327,0.307,0.172,0.102,southeast,1.5,No
2018/02/22,14:50,0.337,0.209,0.345,0.327,0.308,0.172,0.103,east-southeast,1.4,No
2018/02/22,15:00,0.336,0.210,0.345,0.328,0.307,0.171,0.103,east-southeast,1.7,No
2018/02/22,15:10,0.338,0.210,0.346,0.328,0.307,0.171,0.102,south-southeast,1.3,No
2018/02/22,15:20,0.338,0.209,0.344,0.328,0.308,0.172,0.102,southeast,2.1,Yes
2018/02/22,15:30,0.337,0.210,0.346,0.326,0.308,0.172,0.102,south-southeast,2.5,Yes
2018/02/22,15:40,0.338,0.209,0.345,0.327,0.307,0.172,0.102,south-southeast,3.5,Yes
2018/02/22,15:50,0.339,0.209,0.348,0.328,0.308,0.171,0.102,southeast,2.2,Yes
2018/02/22,16:00,0.338,0.209,0.346,0.328,0.308,0.171,0.102,southeast,2.4,Yes
2018/02/22,16:10,0.338,0.210,0.346,0.328,0.308,0.172,0.102,southeast,2.6,Yes
2018/02/22,16:20,0.339,0.211,0.346,0.327,0.307,0.172,0.102,south-southeast,2.6,Yes
2018/02/22,16:30,0.339,0.209,0.345,0.329,0.307,0.172,0.102,southeast,2.3,Yes
2018/02/22,16:40,0.337,0.210,0.344,0.328,0.308,0.172,0.102,southeast,1.1,No
2018/02/22,16:50,0.338,0.210,0.346,0.327,0.308,0.171,0.102,south-southeast,2.0,No
2018/02/22,17:00,0.339,0.210,0.345,0.326,0.306,0.171,0.102,south-southeast,3.1,No
2018/02/22,17:10,0.339,0.210,0.346,0.327,0.306,0.171,0.102,south-southeast,2.7,No
2018/02/22,17:20,0.337,0.208,0.344,0.327,0.307,0.170,0.102,southeast,3.2,Yes
2018/02/22,17:30,0.337,0.209,0.345,0.328,0.307,0.172,0.103,southeast,2.9,No
2018/02/22,17:40,0.338,0.210,0.345,0.327,0.307,0.171,0.102,southeast,2.0,No
2018/02/22,17:50,0.338,0.209,0.345,0.327,0.307,0.171,0.102,southeast,2.6,No
2018/02/22,18:00,0.339,0.210,0.347,0.327,0.306,0.172,0.103,southeast,1.9,No
2018/02/22,18:10,0.337,0.210,0.346,0.328,0.307,0.171,0.103,southeast,1.3,No
2018/02/22,18:20,0.338,0.210,0.345,0.328,0.307,0.171,0.101,south-southeast,2.1,No
2018/02/22,18:30,0.338,0.210,0.345,0.326,0.307,0.171,0.102,south-southeast,3.2,No
2018/02/22,18:40,0.338,0.210,0.345,0.327,0.306,0.171,0.101,south,2.9,No
2018/02/22,18:50,0.336,0.208,0.346,0.328,0.308,0.171,0.102,south-southeast,2.2,No
2018/02/22,19:00,0.339,0.210,0.345,0.327,0.307,0.171,0.102,east,1.1,No
2018/02/22,19:10,0.338,0.210,0.346,0.326,0.306,0.171,0.102,south-southwest,1.6,No
2018/02/22,19:20,0.338,0.209,0.344,0.327,0.307,0.171,0.102,south-southwest,1.8,No
2018/02/22,19:30,0.337,0.209,0.345,0.326,0.306,0.171,0.102,south-southwest,1.3,No
2018/02/22,19:40,0.338,0.209,0.345,0.327,0.307,0.172,0.102,southwest,1.5,No
2018/02/22,19:50,0.337,0.210,0.345,0.328,0.307,0.171,0.102,southwest,1.8,No
2018/02/22,20:00,0.339,0.210,0.344,0.326,0.306,0.171,0.102,southwest,1.3,No
2018/02/22,20:10,0.338,0.209,0.346,0.326,0.307,0.170,0.102,southwest,1.7,Yes
2018/02/22,20:20,0.337,0.210,0.348,0.327,0.306,0.171,0.103,south,0.7,Yes
2018/02/22,20:30,0.338,0.210,0.345,0.327,0.307,0.171,0.102,southwest,0.9,No
2018/02/22,20:40,0.338,0.210,0.345,0.326,0.308,0.172,0.102,west-southwest,1.6,No
2018/02/22,20:50,0.339,0.210,0.345,0.329,0.307,0.171,0.103,west-southwest,0.9,No
2018/02/22,21:00,0.337,0.210,0.345,0.328,0.307,0.171,0.102,west-northwest,0.6,Yes
2018/02/22,21:10,0.338,0.210,0.346,0.327,0.307,0.171,0.102,west,1.4,Yes
2018/02/22,21:20,0.339,0.210,0.346,0.327,0.306,0.172,0.102,west-northwest,1.0,Yes
2018/02/22,21:30,0.338,0.211,0.344,0.328,0.307,0.171,0.103,northwest,1.3,Yes
2018/02/22,21:40,0.339,0.210,0.344,0.327,0.307,0.172,0.102,west,1.8,No
2018/02/22,21:50,0.338,0.210,0.346,0.327,0.305,0.172,0.102,west,1.4,Yes
2018/02/22,22:00,0.338,0.210,0.345,0.328,0.308,0.171,0.103,west,2.0,Yes
2018/02/22,22:10,0.339,0.209,0.345,0.326,0.308,0.170,0.102,west,1.5,Yes
2018/02/22,22:20,0.337,0.210,0.345,0.327,0.307,0.172,0.103,west,1.2,Yes
2018/02/22,22:30,0.338,0.210,0.345,0.327,0.308,0.172,0.102,west-southwest,2.0,Yes
2018/02/22,22:40,0.338,0.210,0.346,0.328,0.308,0.173,0.103,west,2.0,Yes
2018/02/22,22:50,0.339,0.210,0.347,0.327,0.308,0.172,0.103,west-northwest,2.1,Yes
2018/02/22,23:00,0.340,0.210,0.346,0.329,0.308,0.173,0.104,west-northwest,2.8,Yes
2018/02/22,23:10,0.338,0.211,0.346,0.328,0.307,0.172,0.103,west-northwest,2.6,Yes
2018/02/22,23:20,0.339,0.210,0.347,0.329,0.308,0.172,0.104,northwest,2.4,Yes
2018/02/22,23:30,0.340,0.210,0.346,0.328,0.308,0.171,0.103,northwest,2.2,Yes
2018/02/22,23:40,0.339,0.211,0.346,0.328,0.307,0.173,0.103,northwest,2.6,Yes
2018/02/22,23:50,0.338,0.210,0.346,0.326,0.306,0.172,0.102,northwest,2.0,Yes
